TimeEDT,TemperatureF,Dew PointF,Humidity,Sea Level PressureIn,VisibilityMPH,Wind Direction,Wind SpeedMPH,Gust SpeedMPH,PrecipitationIn,Events,Conditions,WindDirDegrees,DateUTC
12:58 AM,59.9,57.7,93,29.94,10.0,WSW,4.6,-,N/A,,Clear,250,2013-10-03 04:58:00
1:58 AM,58.8,56.5,92,29.96,10.0,West,5.8,-,N/A,,Clear,260,2013-10-03 05:58:00
2:58 AM,58.6,55.0,88,29.97,10.0,West,6.9,-,N/A,,Clear,260,2013-10-03 06:58:00
3:58 AM,54.5,53.1,95,29.98,10.0,South,2.3,-,N/A,,Clear,190,2013-10-03 07:58:00
4:58 AM,55.9,52.3,88,29.99,10.0,WSW,5.8,-,N/A,,Clear,250,2013-10-03 08:58:00
5:58 AM,52.0,50.2,94,30.01,10.0,WSW,2.3,-,N/A,,Clear,240,2013-10-03 09:58:00
6:58 AM,52.7,50.9,94,30.03,10.0,West,5.8,-,N/A,,Partly Cloudy,260,2013-10-03 10:58:00
7:58 AM,57.7,52.9,84,30.05,10.0,Variable,2.3,-,N/A,,Partly Cloudy,0,2013-10-03 11:58:00
8:58 AM,62.4,53.4,72,30.07,10.0,NW,4.6,-,N/A,,Partly Cloudy,310,2013-10-03 12:58:00
9:55 AM,67.3,54.0,62,30.08,10.0,Variable,3.5,-,N/A,,Scattered Clouds,0,2013-10-03 13:55:00
10:55 AM,71.6,51.8,50,30.07,10.0,WSW,4.6,-,N/A,,Scattered Clouds,250,2013-10-03 14:55:00
12:00 PM,73.4,50.0,44,30.06,10.0,Variable,6.9,-,N/A,,Scattered Clouds,0,2013-10-03 16:00:00
12:55 PM,76.8,47.3,35,30.04,10.0,West,10.4,-,N/A,,Mostly Cloudy,270,2013-10-03 16:55:00
1:54 PM,76.8,47.3,35,30.04,10.0,WSW,9.2,-,N/A,,Mostly Cloudy,250,2013-10-03 17:54:00
1:56 PM,76.8,44.6,32,30.02,10.0,WSW,10.4,-,N/A,,Mostly Cloudy,250,2013-10-03 17:56:00
2:58 PM,76.6,45.0,32,30.01,10.0,WNW,9.2,-,N/A,,Mostly Cloudy,290,2013-10-03 18:58:00
3:58 PM,74.5,46.4,37,30.00,10.0,WNW,5.8,-,N/A,,Mostly Cloudy,290,2013-10-03 19:58:00
4:58 PM,74.3,46.4,37,30.00,10.0,WNW,4.6,-,N/A,,Mostly Cloudy,290,2013-10-03 20:58:00
5:58 PM,69.3,50.5,51,30.01,10.0,SSW,2.3,-,N/A,,Scattered Clouds,210,2013-10-03 21:58:00
6:58 PM,61.9,52.5,71,30.02,10.0,SSE,5.8,-,N/A,,Mostly Cloudy,150,2013-10-03 22:58:00
7:58 PM,59.7,51.4,74,30.03,10.0,SSE,4.6,-,N/A,,Mostly Cloudy,150,2013-10-03 23:58:00
8:58 PM,57.9,52.2,81,30.04,10.0,West,3.5,-,N/A,,Mostly Cloudy,260,2013-10-04 00:58:00
9:58 PM,57.0,53.4,88,30.05,10.0,Calm,Calm,-,N/A,,Mostly Cloudy,0,2013-10-04 01:58:00
10:58 PM,56.3,54.5,94,30.06,10.0,West,4.6,-,N/A,,Mostly Cloudy,260,2013-10-04 02:58:00